SCP
0 0 0 0 0 0 0 0 0 0 0 0 0 0 0 0 0 0 0 0 0 0 0 0 0 0 0 0 0 0 0 0
0 0 0 0 0 0 0 0 0 0 0 0 0 0 0 0 0 0 0 0 0 0 0 0 0 0 0 0 0 0 0 0
0 0 0 0 0 0 0 0 0 0 0 0 0 0 0 0 0 0 0 0 0 0 0 0 0 0 0 0 0 0 0 0
0 0 0 0 0 0 0 0 0 0 0 0 0 0 0 0 0 0 0 0 0 0 0 0 0 0 0 0 0 0 0 0
0 0 0 0 0 0 0 0 0 0 0 0 0 0 0 0 0 0 0 0 0 0 0 0 0 0 0 0 0 0 0 0
0 0 0 0 0 0 0 0 0 0 0 0 0 0 0 0 0 0 0 0 0 0 0 0 0 0 0 0 0 0 0 0
-0 0 0 0 0 0 0 0 0 0 0 0 0 0 0 0 0 0 0 0 0 0 0 0 0 0 0 0 0 0 0 0
0 0 0 0 0 0 0 0 0 0 0 0 0 0 0 0 0 0 0 0 0 0 0 0 0 0 0 0 0 0 0 0
0 0 0 0 0 0 0 0 0 0 0 0 0 0 0 0 0 0 0 0 0 0 0 0 0 0 0 0 0 0 0 0
0 0 0 0 0 0 0 0 0 0 0 0 0 0 0 0 0 0 0 0 0 0 0 0 0 0 0 0 0 0 0 0
0 0 0 0 0 0 0 0 0 0 0 0 0 0 0 0 0 0 0 0 0 0 0 0 0 0 0 0 0 0 0 0
0 0 0 0 0 0 0 0 0 0 0 0 0 0 0 0 0 0 0 0 0 0 0 0 0 0 0 0 0 0 0 0
0 0 0 0 0 0 0 0 0 0 0 0 0 0 0 0 0 0 0 0 0 0 0 0 0 0 0 0 0 0 0 0
0 0 0 0 0 0 0 0 0 0 0 0 0 0 0 0 0 0 0 0 0 0 0 0 0 0 0 0 0 0 0 0
0 0 0 0 0 0 0 0 0 0 0 0 0 0 0 0 0 0 0 0 0 0 0 0 0 0 0 0 0 0 0 0
0 0 0 0 0 0 0 0 0 0 0 0 0 0 0 0 0 0 0 0 0 0 0 0 0 0 0 0 0 0 0 0
0 0 0 0 0 0 0 0 0 0 0 0 0 0 0 0 0 0 0 0 0 0 0 0 0 0 0 0 0 0 0 0
0 0 0 0 0 0 0 0 0 0 0 0 0 0 0 0 0 0 0 0 0 0 0 0 0 0 0 0 0 0 0 0
0 0 0 0 0 0 0 0 0 0 0 0 0 0 0 0 0 0 0 0 0 0 0 0 0 0 0 0 0 0 0 0
0 0 0 0 0 0 0 0 0 0 0 0 0 0 0 0 0 0 0 0 0 0 0 0 0 0 0 0 0 0 0 0
Wind_Speed_500mb
28 29 28 26 25 24 26 28 29 27 27 29 28 27 28 29 31 32 33 36 37 39 41 42 45 48 55 62 68 75 81 86
28 28 28 26 25 26 25 25 25 28 29 31 33 33 33 33 35 39 41 43 44 45 47 49 50 51 56 61 65 72 77 83
25 22 21 21 21 23 23 25 28 30 31 33 34 34 34 36 38 41 44 46 50 52 54 55 57 58 61 65 67 72 78 81
18 17 18 18 20 22 25 29 32 35 37 39 41 43 45 46 47 48 49 50 52 56 59 61 61 61 60 63 68 73 77 79
13 11 13 16 19 23 27 31 34 37 40 42 44 47 50 52 53 54 56 57 56 55 58 61 65 67 69 70 71 73 75 77
11 10 11 15 20 25 30 34 37 42 46 50 52 53 55 57 58 60 61 62 62 62 59 60 63 65 67 69 74 79 81 80
11 10 13 17 21 26 31 35 41 46 50 55 58 63 66 69 72 74 75 73 72 70 70 69 65 65 68 74 77 75 77 82
10 10 14 19 24 29 33 40 47 52 56 60 64 67 68 72 75 77 78 78 78 78 76 75 69 67 68 70 74 76 77 76
4 7 15 21 26 31 39 47 56 60 62 65 70 73 75 77 79 80 83 85 85 83 79 78 75 73 72 71 72 73 74 75
2 10 18 26 35 42 48 54 60 62 63 64 67 73 77 79 81 82 85 86 87 86 85 85 83 75 73 73 72 72 72 70
8 16 24 34 42 48 51 55 59 62 63 62 63 67 72 76 78 79 80 84 85 86 82 82 84 79 77 73 72 72 71 71
18 26 34 41 49 54 58 59 60 63 64 65 67 69 71 75 77 79 81 83 85 87 85 79 74 76 74 71 68 65 66 67
28 34 39 48 57 59 60 62 66 69 72 74 75 76 77 77 78 78 78 83 86 87 87 82 74 70 71 64 55 47 55 58
41 47 48 52 56 61 64 69 72 74 76 79 79 79 80 81 80 78 74 79 84 84 84 81 71 63 58 52 46 43 41 39
45 50 53 57 62 64 65 70 75 78 78 78 80 81 79 79 79 80 79 74 75 74 73 70 60 45 42 37 31 24 20 23
50 58 61 63 65 66 72 76 79 80 82 83 83 82 82 78 76 76 73 62 63 62 58 54 51 36 32 21 17 12 17 22
50 55 60 65 70 71 75 79 80 81 81 82 82 82 80 80 82 69 57 47 45 41 41 40 36 33 14 6 4 10 12 12
52 55 60 66 70 71 72 73 73 76 78 78 78 77 77 74 68 66 49 35 38 36 30 30 28 15 3 2 7 13 15 19
51 60 67 70 69 68 67 68 68 68 68 68 70 68 64 59 54 46 42 38 29 26 23 21 16 7 6 6 10 10 15 17
57 62 66 68 66 64 62 61 61 60 60 60 60 56 50 45 40 36 31 30 27 25 21 19 13 8 11 8 8 7 6 10
Wind_Direction_500mb
72 67 64 60 58 54 51 48 45 39 31 23 13 3 352 342 333 327 319 308 303 298 293 288 282 278 275 273 272 272 274 273
82 77 73 72 67 60 55 47 38 30 20 8 1 355 348 340 332 325 322 317 311 305 299 295 292 289 284 281 279 277 277 277
100 91 81 65 53 41 29 17 13 7 360 355 353 350 347 342 335 328 323 321 317 313 308 304 301 296 290 287 283 280 279 278
106 85 64 47 33 21 11 7 2 357 354 351 349 347 347 345 340 335 330 325 320 317 316 314 310 304 299 293 290 288 287 285
102 73 43 26 15 11 6 2 358 353 350 347 345 344 343 340 336 333 330 325 320 317 314 312 309 308 305 301 298 295 293 290
103 75 48 31 16 7 1 356 353 350 346 345 344 342 338 335 332 329 326 323 320 316 311 308 307 306 305 302 300 298 294 291
122 76 38 21 10 1 353 350 348 342 339 336 334 332 329 327 325 324 323 322 320 318 314 311 307 304 302 301 299 299 299 297
86 40 15 4 359 353 347 341 335 334 332 328 324 321 319 318 318 318 318 319 319 319 318 313 313 310 307 304 303 302 300 296
83 12 353 347 339 334 330 327 324 323 321 318 315 313 312 311 310 310 311 313 314 314 314 312 313 311 309 307 305 302 299 297
4 341 332 326 324 321 320 319 316 315 313 311 309 307 307 306 306 306 307 307 308 310 313 312 311 311 310 308 306 303 300 298
318 322 321 319 317 317 318 317 313 312 312 313 311 309 308 308 307 306 306 306 307 307 310 312 310 310 309 307 303 301 300 297
301 311 317 317 317 318 318 316 314 314 314 313 310 308 307 306 304 305 305 304 304 305 307 309 311 309 307 305 302 301 301 301
299 308 314 315 314 315 317 315 313 313 312 312 311 310 307 307 306 305 304 305 306 306 305 307 311 312 310 305 301 298 298 298
303 308 314 314 314 315 316 313 313 313 312 311 308 306 305 305 305 304 306 306 307 308 308 308 312 313 308 303 300 295 293 293
306 310 315 316 316 315 315 314 314 312 312 313 311 309 305 303 305 305 306 306 306 307 307 308 314 314 311 309 308 307 303 302
311 314 316 316 315 313 311 311 312 311 310 310 310 310 309 306 304 304 304 303 303 308 309 313 314 319 313 321 320 328 329 323
309 314 316 316 316 314 310 310 311 311 311 309 309 309 308 307 305 304 303 298 298 296 297 304 306 312 307 318 1 25 23 36
314 317 317 317 318 315 311 309 309 309 309 308 308 307 308 309 308 305 300 294 293 292 297 305 303 294 290 93 87 76 77 79
316 317 316 318 319 317 314 311 309 309 308 307 306 308 309 309 305 300 298 303 295 285 285 289 297 282 184 171 144 110 91 88
314 315 314 316 319 318 316 313 312 311 311 309 308 310 310 309 305 300 294 289 282 282 262 254 260 242 206 187 172 148 111 92
Wind_Speed_850mb
28 29 28 26 25 24 26 28 29 27 27 29 28 27 28 29 31 32 33 36 37 39 41 42 45 48 55 62 68 75 81 86
28 28 28 26 25 26 25 25 25 28 29 31 33 33 33 33 35 39 41 43 44 45 47 49 50 51 56 61 65 72 77 83
25 22 21 21 21 23 23 25 28 30 31 33 34 34 34 36 38 41 44 46 50 52 54 55 57 58 61 65 67 72 78 81
18 17 18 18 20 22 25 29 32 35 37 39 41 43 45 46 47 48 49 50 52 56 59 61 61 61 60 63 68 73 77 79
13 11 13 16 19 23 27 31 34 37 40 42 44 47 50 52 53 54 56 57 56 55 58 61 65 67 69 70 71 73 75 77
11 10 11 15 20 25 30 34 37 42 46 50 52 53 55 57 58 60 61 62 62 62 59 60 63 65 67 69 74 79 81 80
11 10 13 17 21 26 31 35 41 46 50 55 58 63 66 69 72 74 75 73 72 70 70 69 65 65 68 74 77 75 77 82
10 10 14 19 24 29 33 40 47 52 56 60 64 67 68 72 75 77 78 78 78 78 76 75 69 67 68 70 74 76 77 76
4 7 15 21 26 31 39 47 56 60 62 65 70 73 75 77 79 80 83 85 85 83 79 78 75 73 72 71 72 73 74 75
2 10 18 26 35 42 48 54 60 62 63 64 67 73 77 79 81 82 85 86 87 86 85 85 83 75 73 73 72 72 72 70
8 16 24 34 42 48 51 55 59 62 63 62 63 67 72 76 78 79 80 84 85 86 82 82 84 79 77 73 72 72 71 71
18 26 34 41 49 54 58 59 60 63 64 65 67 69 71 75 77 79 81 83 85 87 85 79 74 76 74 71 68 65 66 67
28 34 39 48 57 59 60 62 66 69 72 74 75 76 77 77 78 78 78 83 86 87 87 82 74 70 71 64 55 47 55 58
41 47 48 52 56 61 64 69 72 74 76 79 79 79 80 81 80 78 74 79 84 84 84 81 71 63 58 52 46 43 41 39
45 50 53 57 62 64 65 70 75 78 78 78 80 81 79 79 79 80 79 74 75 74 73 70 60 45 42 37 31 24 20 23
50 58 61 63 65 66 72 76 79 80 82 83 83 82 82 78 76 76 73 62 63 62 58 54 51 36 32 21 17 12 17 22
50 55 60 65 70 71 75 79 80 81 81 82 82 82 80 80 82 69 57 47 45 41 41 40 36 33 14 6 4 10 12 12
52 55 60 66 70 71 72 73 73 76 78 78 78 77 77 74 68 66 49 35 38 36 30 30 28 15 3 2 7 13 15 19
51 60 67 70 69 68 67 68 68 68 68 68 70 68 64 59 54 46 42 38 29 26 23 21 16 7 6 6 10 10 15 17
57 62 66 68 66 64 62 61 61 60 60 60 60 56 50 45 40 36 31 30 27 25 21 19 13 8 11 8 8 7 6 10
Wind_Direction_850mb
72 67 64 60 58 54 51 48 45 39 31 23 13 3 352 342 333 327 319 308 303 298 293 288 282 278 275 273 272 272 274 273
82 77 73 72 67 60 55 47 38 30 20 8 1 355 348 340 332 325 322 317 311 305 299 295 292 289 284 281 279 277 277 277
100 91 81 65 53 41 29 17 13 7 360 355 353 350 347 342 335 328 323 321 317 313 308 304 301 296 290 287 283 280 279 278
106 85 64 47 33 21 11 7 2 357 354 351 349 347 347 345 340 335 330 325 320 317 316 314 310 304 299 293 290 288 287 285
102 73 43 26 15 11 6 2 358 353 350 347 345 344 343 340 336 333 330 325 320 317 314 312 309 308 305 301 298 295 293 290
103 75 48 31 16 7 1 356 353 350 346 345 344 342 338 335 332 329 326 323 320 316 311 308 307 306 305 302 300 298 294 291
122 76 38 21 10 1 353 350 348 342 339 336 334 332 329 327 325 324 323 322 320 318 314 311 307 304 302 301 299 299 299 297
86 40 15 4 359 353 347 341 335 334 332 328 324 321 319 318 318 318 318 319 319 319 318 313 313 310 307 304 303 302 300 296
83 12 353 347 339 334 330 327 324 323 321 318 315 313 312 311 310 310 311 313 314 314 314 312 313 311 309 307 305 302 299 297
4 341 332 326 324 321 320 319 316 315 313 311 309 307 307 306 306 306 307 307 308 310 313 312 311 311 310 308 306 303 300 298
318 322 321 319 317 317 318 317 313 312 312 313 311 309 308 308 307 306 306 306 307 307 310 312 310 310 309 307 303 301 300 297
301 311 317 317 317 318 318 316 314 314 314 313 310 308 307 306 304 305 305 304 304 305 307 309 311 309 307 305 302 301 301 301
299 308 314 315 314 315 317 315 313 313 312 312 311 310 307 307 306 305 304 305 306 306 305 307 311 312 310 305 301 298 298 298
303 308 314 314 314 315 316 313 313 313 312 311 308 306 305 305 305 304 306 306 307 308 308 308 312 313 308 303 300 295 293 293
306 310 315 316 316 315 315 314 314 312 312 313 311 309 305 303 305 305 306 306 306 307 307 308 314 314 311 309 308 307 303 302
311 314 316 316 315 313 311 311 312 311 310 310 310 310 309 306 304 304 304 303 303 308 309 313 314 319 313 321 320 328 329 323
309 314 316 316 316 314 310 310 311 311 311 309 309 309 308 307 305 304 303 298 298 296 297 304 306 312 307 318 1 25 23 36
314 317 317 317 318 315 311 309 309 309 309 308 308 307 308 309 308 305 300 294 293 292 297 305 303 294 290 93 87 76 77 79
316 317 316 318 319 317 314 311 309 309 308 307 306 308 309 309 305 300 298 303 295 285 285 289 297 282 184 171 144 110 91 88
314 315 314 316 319 318 316 313 312 311 311 309 308 310 310 309 305 300 294 289 282 282 262 254 260 242 206 187 172 148 111 92